Location: 's-Graveland
(52.2442°N, 5.1211°E)
Time: 12:55:25
(UTC+02:00)

ISS - Visible Passes

Search period start: 24 June 2024 00:00
Search period end: 04 July 2024 00:00
Orbit: 410 x 425 km, 51.6° (Epoch: 24 June)

Date Brightness Start Highest point End Pass type
(mag) Time Alt. Az. Time Alt. Az. Time Alt. Az.
27 Jun -1.7 03:48:41 11° S 03:50:34 16° SE 03:52:43 10° ESE visible
28 Jun -1.4 03:02:07 11° SSE 03:02:37 11° SE 03:03:31 10° ESE visible
29 Jun -2.7 03:48:21 15° SSW 03:50:34 30° SSE 03:53:32 10° E visible
30 Jun -2.3 03:01:37 20° SSE 03:02:27 22° SE 03:05:04 10° E visible
01 Jul -1.7 02:14:50 15° SE 02:14:50 15° SE 02:16:22 10° ESE visible
01 Jul -3.5 03:47:42 13° SW 03:50:33 50° SSE 03:53:48 10° E visible
02 Jul -3.2 03:00:50 24° SSW 03:02:17 38° SSE 03:05:26 10° E visible
03 Jul -2.8 02:13:51 28° SSE 02:14:03 28° SSE 02:16:58 10° E visible
03 Jul -3.8 03:47:12 10° WSW 03:50:31 73° S 03:53:51 10° E visible
